CAPE
1668 1887 1746 1832 2052 2211 2189 2563 2446 2472 2515 2690 2696 2864 2879 2921 2730 2684 3105 3071 3087 3123 3328 3370 3459 3318 2973 3084 2879 3108 3503 3342 3430 3786 4026 4117 4179 4058 3825 4224 3943 3714 4010 3982 3955 3941 4097 3944 3804 3828 4034 3734 3590 3155 2843 3085 3490 3510 3555 3733 3265 3509 3450 3409 3167 3175 3564 3593 2838 2666 2514 2940 2271 2994 3126 2419 2244 2508 2820 3065 3815 3555 3024 2976 3034
1679 1835 1833 1732 1737 1880 1840 2099 2302 2455 2226 2537 2353 2662 2742 2920 3042 3175 2919 3087 3203 2964 3217 3173 3372 3404 3169 3297 3457 3296 3735 4039 3360 3362 3662 3826 3881 3559 3903 4258 4150 3973 3886 4045 3983 3817 3774 3822 3783 3604 3712 3822 3526 3312 2914 2711 2847 3050 3408 3254 3185 3244 3723 3155 3225 3402 3332 3401 3813 3485 3188 3125 2812 3235 3215 3209 2704 2862 2805 2839 2576 2572 2874 3049 2738
1790 2148 1992 1833 1866 1732 1798 1931 2065 2105 1782 1928 1686 1720 2220 2495 3006 3012 2676 2728 3157 3106 3247 3081 3622 3692 3427 3525 3825 3712 4017 3819 3730 3796 3768 3953 3924 3512 3316 3774 3844 3794 3816 4037 3796 3764 3838 3861 3603 3435 3316 3471 3589 3386 3117 3042 2999 3122 3109 3127 3202 3143 3417 3646 3368 3162 3212 3292 3578 2868 2765 3301 3119 2804 2930 2813 3209 3705 4073 3331 2528 2313 2818 3111 2864
2096 2256 2257 2099 1740 1770 1862 1758 1499 1544 1486 1635 1565 1528 1515 2026 2606 2630 2581 2584 2863 3325 3297 3250 3756 4078 3798 3890 4047 3923 4000 3936 3826 3846 4028 3959 3945 4091 3998 3976 3748 3759 3765 3732 3526 3672 3536 3600 3416 3164 3390 3626 3777 3709 3460 3291 3306 3543 3502 3528 3656 3424 3575 3785 3865 3547 3386 3409 3485 3479 3068 3099 2992 2781 2923 3067 3068 3198 3168 2786 2892 2928 2708 2345 2305
2176 2170 2224 2324 2058 1939 1749 1697 1704 1680 1523 1537 1606 1537 1565 1547 2003 2087 2123 2216 2454 2754 3447 3539 3757 3987 3495 3693 3938 4092 3959 3999 4132 3864 3820 3850 3961 3782 3763 4003 3904 3987 3904 3963 3929 3923 3900 3717 3417 3523 3642 3615 3405 3272 3110 3372 3359 3300 3225 3264 3598 3533 3732 3674 3763 3773 3615 3521 3520 3849 4029 3573 3403 3482 3367 2978 2782 2816 3210 3777 3488 2864 3002 2465 2056
2388 2394 2319 2432 2506 2267 2024 1915 1874 1914 1896 1834 1807 1766 1762 1694 1780 1962 1896 2054 2404 2282 2528 2834 2984 3488 3462 3412 3548 3908 4044 4069 4198 4113 3757 3798 3918 3864 3750 3922 3722 3780 3772 3632 3866 3925 3768 3836 3847 3840 3760 3552 3271 3326 3545 3530 3431 3070 3355 3553 3609 3692 3874 3850 4035 4050 3901 3626 3503 3494 3663 3236 3329 3389 3490 3104 2676 2552 2676 2804 3032 3555 3620 2725 2045
2779 2634 2626 2551 2709 2590 2480 2249 2217 2119 2296 2153 2145 2129 2011 1862 1707 1651 1906 1941 2037 1976 1998 2303 2672 2708 3008 3068 3031 3481 4012 3847 4215 4251 4088 4025 3990 4160 3756 3800 3852 3683 3522 3335 3080 3264 3390 3497 3737 3843 3847 3845 3526 3380 3368 3381 3071 3131 3417 3750 3621 3576 3374 3505 3634 3581 3432 3197 3097 3194 3390 3359 3475 3249 3319 3709 3178 2910 2842 2792 2770 2544 3543 3763 3391
2704 2615 2553 2543 2573 2633 2547 2497 2639 2574 2388 2384 2267 2200 2183 2139 2201 2096 2084 2061 1881 1839 1782 1787 2082 2255 2435 2562 2916 3136 3613 3713 4050 4161 4085 3838 3845 3935 3992 3789 3593 3548 3565 3606 3444 3025 3116 3190 2912 3145 3552 3888 3842 3604 3600 3461 3342 3221 3186 3433 3608 3706 3452 3196 3154 3029 2942 2775 2697 2675 2838 3175 3401 3176 3218 3630 3634 3764 3797 2723 2367 2530 2786 3379 3419
2108 2147 2248 2286 2261 2326 2249 2061 1996 1864 2332 2346 2088 2082 2062 2141 2228 2303 2294 2174 1853 1816 1848 1682 1811 2029 2135 2451 2622 2701 2676 3002 3252 3536 3829 3952 3654 3412 3546 3694 3653 3580 3715 3335 3233 3635 3395 2938 2848 2794 3207 3912 3903 3476 3296 3368 3337 3260 3774 3966 3926 3640 3560 3244 3217 3185 3083 2994 3223 3391 3271 3402 3431 3483 2965 3061 2926 2494 2318 2513 2524 2502 2765 2832 3122
1914 2013 2011 1980 1868 1684 1620 1513 1552 1687 1912 2021 2150 2082 1836 1980 1881 1857 1861 1922 1965 2070 2127 2119 2006 1949 2038 2246 2452 2388 2534 2646 2898 2529 2608 3013 3367 3064 3124 3593 3679 3530 3647 3730 3279 3157 3170 2920 2521 3110 3471 3469 3322 2859 2504 2354 2361 2730 3182 3488 3813 3672 3516 3512 3447 3272 3304 3248 2746 2489 2369 2045 1606 1721 2063 2155 2232 2858 2758 3036 2922 2453 2485 2870 3089
1202 1193 1288 1638 1765 1514 1453 1514 1566 1590 1887 1878 1975 2012 1979 1791 1839 2013 1885 1776 1807 2125 1638 1630 1551 1599 1605 1626 1739 1784 1903 1978 2056 1812 1665 1604 2171 2741 3227 3424 3700 3836 3532 3622 3670 3111 2839 2966 3050 3113 3548 3530 3405 3028 2787 2669 2559 2477 2347 2227 2848 3425 3180 3089 3242 3148 3285 2982 2603 2470 2289 2386 2336 2098 2022 1600 1822 2030 2123 2418 2419 2416 2705 2552 2261
1139 1194 1167 1165 1254 1418 1427 1466 1483 1499 1478 1482 1684 1804 1747 1864 1973 1978 1798 1826 1993 1750 1720 1669 1951 1520 1300 1187 1165 1295 1446 1444 1202 1151 1156 1241 1293 2018 2258 2582 2674 2884 3051 2925 2927 2876 2766 2614 2633 2575 2693 2985 2980 3184 3418 3025 2451 2340 2280 2260 2258 2189 2178 2958 3076 3080 3188 3106 2965 2717 2430 2221 2242 2297 1607 1107 1600 1616 1931 2232 2592 2624 2327 2142 2153
1226 1123 1471 1304 1046 1124 1146 1246 1505 1314 1380 1411 1446 1386 1475 1607 1701 1813 1916 1934 1676 1731 2222 1871 2042 1860 1730 1830 1452 1286 1323 785 766 742 746 708 762 987 1634 1976 2159 2284 2327 2610 2745 2773 2980 3040 2940 2667 2321 2498 2679 2612 2938 3192 2791 1859 1460 1356 1271 1285 1323 1336 1358 2289 2332 2654 2820 2710 2542 2471 2525 2466 2206 2367 2410 2018 2158 2048 2340 2708 2602 2493 2363
931 881 888 878 857 867 908 885 861 867 978 1064 1280 1568 1494 1326 1619 1610 1754 1579 1601 1977 1962 2300 2340 2482 2329 2373 2248 1884 2004 1130 878 755 751 760 764 742 1168 1558 1800 2015 2237 2362 2270 2391 2762 3060 2882 2776 2804 2845 2957 2791 2764 2920 2968 2973 3131 2940 2800 2607 2029 1120 1006 964 1038 1483 1972 2322 2635 3036 3019 2814 2770 2854 2643 2209 1881 1722 1929 1891 2059 2218 2287
752 735 734 726 744 750 702 721 737 731 734 758 824 881 945 1054 1169 1255 1317 1337 1269 1508 1385 1662 1669 1781 1901 1938 2221 1886 1539 1136 1131 1064 939 884 782 685 728 1142 1336 1643 1904 2156 2506 2587 2734 2717 2692 2620 2650 2847 2856 2768 2516 2444 2498 2374 2353 2280 2180 2225 2325 2251 2091 1903 1591 1161 1422 1910 2159 2281 2519 2754 2808 2727 2587 2485 2167 2045 1814 1840 2084 2204 2204
652 577 672 751 773 695 793 802 770 750 753 816 868 891 876 860 857 905 976 994 1053 1082 1156 1362 1371 1247 1384 1358 1505 1800 1459 1124 1137 1184 1136 1108 983 859 1234 1526 1591 1650 1746 1970 2132 2433 2564 2445 2487 2601 2616 2799 2608 1830 1586 1872 1911 2069 2268 2420 2384 2308 2237 1918 1526 1164 1395 1586 1745 1837 1720 1524 1118 1954 2097 1308 1320 1550 1671 1675 1798 2099 2222 2161 2128
378 272 350 342 409 524 612 554 749 605 724 801 808 816 842 833 810 814 835 921 961 1047 1057 1262 1252 1190 1245 1179 1216 1246 1184 1102 1092 1123 1164 1202 1166 1553 1496 1490 1670 1712 1817 1921 1988 1916 1959 2010 2278 2232 2160 2286 2107 1531 1150 916 1632 1830 2072 2126 2111 2115 2042 2017 1644 1257 1023 834 776 855 939 946 886 567 236 218 203 642 806 1003 1148 1287 1763 1841 1626
164 10 70 293 369 410 525 583 513 566 626 629 640 696 740 702 770 728 744 812 852 876 886 894 919 939 972 979 963 984 967 1000 992 964 1003 1134 1236 1319 1673 1672 1714 1777 1844 1844 1784 1847 1791 1450 1380 1586 1738 2205 1658 1510 1192 1016 1527 1939 2110 2124 2201 2161 2180 1989 1797 1461 1235 1080 1061 1159 1192 1211 1222 1214 1192 1173 1151 1032 868 752 707 758 1066 1386 1436
144 122 31 148 92 134 277 284 280 283 247 230 228 267 370 485 589 626 555 484 534 676 773 830 803 814 826 843 812 808 826 872 941 971 999 1057 1127 1173 1222 1468 1530 1615 1545 1661 1609 1571 1537 1364 1023 1120 1014 919 878 816 777 728 1296 1663 1961 2053 2029 2134 2089 1911 1792 1770 1996 1878 2491 2141 1623 1491 1246 1337 1387 1435 1446 1424 1358 1304 1196 1048 865 1134 1299
2 0 86 0 2 96 167 205 89 136 186 198 204 300 328 267 239 242 236 217 128 198 394 437 482 560 639 692 722 699 634 683 704 764 824 881 963 1032 1099 1114 1193 1180 1183 1203 1467 1539 1194 1186 998 879 945 935 940 937 905 873 881 879 1080 1292 1538 1828 1680 1399 1188 1115 1189 1154 1258 1302 1418 1541 1613 1609 1590 1634 1340 1395 1419 1387 1378 1279 1157 1034 1265
16 105 33 114 97 54 46 100 148 124 109 127 137 158 167 185 191 182 173 178 225 229 300 308 309 329 331 347 357 381 389 370 393 432 491 595 685 714 782 921 1035 1111 1168 1174 1196 1228 1171 1148 1065 1014 992 1008 1003 998 996 1016 1018 1026 1029 1028 1010 1014 1046 1100 1120 1133 1105 1041 968 1221 1384 1482 1544 1581 1570 1527 1444 1442 1382 1032 1023 1122 1166 1193 1135
0 0 0 0 0 33 117 127 29 85 74 80 91 90 93 64 23 99 105 70 143 160 182 197 202 202 183 158 130 94 84 110 169 233 270 329 405 460 514 588 661 692 726 790 884 981 1037 1074 1117 1142 1152 1132 1119 1110 1108 1103 1087 1056 1049 1046 1046 1037 1023 1024 1038 1059 1101 1139 1362 1494 1593 1676 1711 1730 1576 1485 1170 1085 1051 1004 947 999 989 1088 1150
0 0 0 0 0 0 0 0 0 0 0 0 0 0 0 0 1 19 34 84 106 109 102 91 97 112 118 51 49 45 1 7 1 1 122 205 246 309 382 447 488 494 511 523 545 597 626 692 754 802 915 1038 1083 1087 1073 1056 1056 1108 1152 1186 1198 1197 1192 1194 1196 1200 1216 1227 1218 1619 1766 1838 1861 1862 1858 1850 1767 1600 1362 1354 1326 1181 1431 1454 1233
0 0 0 0 0 0 0 0 0 0 0 0 0 0 0 0 0 0 4 0 0 0 0 0 0 0 0 0 0 0 0 1 0 0 56 79 96 139 163 206 262 252 296 315 358 365 480 517 551 547 557 586 660 764 816 840 842 886 932 962 980 1014 1015 999 1015 1028 1035 1048 1044 1230 1530 1687 1856 1892 1903 1953 1613 1880 1766 1508 1418 1305 1317 1364 1423
0 0 0 0 0 0 0 0 0 0 0 0 0 0 0 0 0 0 0 0 0 0 0 0 0 0 0 0 0 0 0 0 0 0 0 0 0 0 0 22 113 147 139 126 109 122 138 204 262 405 487 544 578 557 540 559 576 612 587 523 567 612 662 655 669 707 797 843 840 871 1118 1261 1376 1406 1371 1524 1436 1442 1415 1415 1379 1362 1312 1294 1303
0 0 0 0 0 0 0 0 0 0 0 0 0 0 0 0 0 0 0 0 0 0 0 0 0 0 0 0 0 0 0 0 0 0 0 0 0 0 0 0 0 0 0 0 0 39 61 82 100 114 131 173 216 240 278 256 229 250 315 354 349 366 402 295 317 393 387 386 430 520 603 658 705 977 972 837 1111 1181 1303 1352 1323 1240 1511 1312 1285
0 0 0 0 0 0 0 0 0 0 0 0 0 0 0 0 0 0 0 0 0 0 0 0 0 0 0 0 0 0 0 0 0 0 0 0 0 0 0 0 0 0 0 0 0 0 6 7 36 92 104 96 15 14 90 103 101 88 77 60 60 93 168 222 265 293 315 320 332 367 361 449 580 615 647 698 884 1167 1162 1200 1109 1110 953 1250 1505
0 0 0 0 0 0 0 0 0 0 0 0 0 0 0 0 0 0 1 6 2 0 0 0 0 0 0 0 0 0 0 0 0 0 0 0 0 0 0 0 0 0 0 0 0 0 0 0 0 0 0 0 0 0 0 0 0 0 0 0 0 0 13 13 37 23 26 26 3 43 192 441 549 458 598 718 769 896 952 943 1005 1006 1007 1032 1181
0 2 1 1 1 0 0 0 0 0 0 0 0 0 0 2 6 8 6 8 7 0 0 0 0 0 0 0 0 0 0 0 0 0 0 0 0 0 0 0 0 0 0 0 0 0 0 0 0 0 0 0 0 0 0 0 0 0 0 0 0 0 0 0 20 58 57 48 55 40 82 97 117 165 425 632 722 743 936 1093 1064 936 978 830 855
1 0 1 0 0 1 1 0 0 0 0 0 2 1 0 0 1 1 0 0 0 0 0 0 0 0 2 2 0 3 4 0 0 0 0 0 0 0 0 0 0 0 0 0 0 0 0 0 0 0 0 0 0 0 0 0 0 0 0 0 0 0 0 0 0 0 0 17 30 63 96 121 104 106 117 127 146 277 510 525 728 869 994 864 620
0 0 2 2 2 4 1 2 4 5 1 1 4 7 2 4 0 0 0 0 0 0 0 0 0 0 0 21 2 0 0 0 0 0 0 0 0 0 0 0 0 0 0 0 0 0 0 0 0 0 0 0 0 0 0 0 0 0 0 0 0 0 0 1 4 3 2 1 2 2 1 1 5 10 7 100 8 211 241 210 398 676 787 734 781
0 1 2 1 2 4 3 4 4 7 8 6 4 3 3 11 32 2 0 0 0 0 0 0 0 0 0 0 6 6 0 0 0 0 0 0 0 0 0 0 0 0 0 0 1 0 0 0 0 0 0 0 0 0 0 0 0 0 0 0 0 0 1 4 5 6 5 6 5 4 2 1 2 4 5 6 6 6 7 4 26 152 339 518 654
1 0 0 0 0 2 1 3 4 6 6 5 8 6 4 1 0 8 72 0 0 1 1 0 0 0 0 0 0 0 0 0 0 0 0 0 0 0 0 0 0 0 0 0 0 0 0 0 0 0 0 0 0 0 0 0 0 0 0 0 0 0 1 3 5 6 6 6 6 5 5 5 6 3 2 4 4 5 5 5 5 7 14 94 217
0 0 0 0 0 1 0 0 3 4 4 5 7 6 6 6 12 7 6 10 19 8 0 0 0 0 0 0 0 0 0 0 0 0 0 0 0 0 0 0 0 0 0 0 0 0 0 0 0 0 0 0 0 0 0 0 0 0 0 0 0 0 1 2 2 3 6 6 5 4 7 7 7 7 7 6 6 6 6 5 6 6 6 7 10
0 0 0 0 0 0 0 0 2 5 4 4 4 4 5 11 10 9 10 8 10 10 14 42 16 0 0 0 0 0 0 0 0 0 0 0 0 0 0 5 8 11 25 4 1 0 0 0 0 0 0 0 0 0 0 0 0 0 0 0 0 0 1 1 1 3 4 5 6 6 7 6 8 8 7 7 7 7 6 6 6 6 6 5 4
0 0 0 0 0 0 0 0 2 3 4 4 4 1 2 5 6 7 10 11 14 14 11 7 12 0 0 0 0 0 0 0 0 0 0 0 0 0 3 6 2 2 3 4 3 1 2 1 0 0 0 0 0 0 0 1 3 3 4 3 3 3 2 2 3 4 4 5 8 8 7 9 8 8 8 8 8 7 6 4 4 4 4 4 5
0 0 0 0 0 0 0 0 0 3 1 2 1 1 0 0 3 6 8 10 12 14 12 13 8 6 2 4 1 0 0 0 0 0 0 0 0 0 1 4 4 4 3 2 3 1 2 2 2 2 1 0 0 0 0 0 0 2 2 4 5 6 5 4 3 5 5 4 4 7 9 7 8 8 8 8 6 3 3 4 4 2 3 3 3
0 0 0 0 0 0 0 0 0 0 1 4 3 2 0 3 4 6 5 7 8 8 8 8 9 10 7 7 0 0 0 0 0 0 0 0 0 3 10 14 11 10 8 5 4 2 1 2 1 2 2 0 1 0 0 0 0 0 0 2 4 6 4 5 5 5 4 4 4 3 3 3 5 7 8 8 6 6 5 4 4 4 4 3 4
0 0 0 0 0 0 0 0 0 0 0 0 0 0 0 0 1 4 7 6 6 5 8 8 8 10 8 9 11 9 0 0 0 4 7 11 13 16 17 14 17 12 12 11 6 8 4 4 4 3 3 3 1 0 0 0 0 1 2 3 3 4 4 4 4 5 5 5 4 4 4 5 6 5 6 6 6 7 6 5 5 3 3 3 2
0 0 0 0 0 0 0 0 0 0 0 0 0 0 0 1 1 4 7 5 5 8 6 6 7 8 10 13 17 15 10 6 7 11 14 12 15 17 20 15 19 17 11 9 11 12 11 10 11 12 12 8 4 2 0 1 0 0 2 3 3 4 4 4 4 4 4 4 4 3 1 1 1 3 4 4 4 2 0 0 1 2 0 1 0
0 0 0 0 0 0 0 0 0 0 0 0 0 0 2 6 6 7 7 5 8 7 6 6 7 9 13 22 8 4 14 11 12 15 19 22 20 22 19 19 14 13 16 12 11 8 4 1 1 2 3 2 3 6 7 4 2 2 2 2 2 2 2 4 4 3 3 2 2 0 0 0 0 0 0 0 0 1 1 0 0 0 0 0 0
0 0 0 0 0 0 0 0 0 0 0 1 1 1 4 5 4 7 7 7 5 5 4 6 8 9 8 17 29 9 13 12 11 13 14 18 18 13 5 2 5 10 7 11 4 0 1 1 0 0 0 1 0 1 2 3 2 1 0 1 2 2 2 2 2 2 1 1 2 1 0 0 0 0 1 0 1 1 0 1 0 0 1 1 0
0 0 0 0 0 0 0 0 2 2 2 3 5 5 4 3 3 4 4 3 3 4 5 5 4 7 10 14 32 23 15 11 11 11 12 14 12 9 7 4 1 1 2 0 0 0 0 0 3 4 3 2 0 1 1 1 1 1 1 1 1 2 1 0 0 0 0 0 0 0 0 0 0 0 0 0 0 0 1 0 0 1 0 0 0
0 0 0 0 0 0 0 0 1 3 3 6 7 4 5 6 6 6 5 5 4 4 4 4 7 12 12 11 27 12 11 10 11 12 14 14 12 10 9 11 7 2 1 2 2 1 2 2 1 2 3 3 3 4 3 2 2 1 1 1 1 1 0 0 0 0 0 0 0 0 0 0 0 1 0 1 0 0 0 0 1 0 1 0 1
0 0 0 0 0 0 0 0 0 3 4 4 4 4 8 5 5 6 5 4 4 4 4 5 9 10 11 9 9 8 6 7 10 12 13 13 12 11 11 10 9 7 4 3 3 5 4 1 0 2 2 3 3 3 2 0 0 0 0 0 0 0 0 0 0 0 0 0 0 0 0 0 0 0 0 1 0 0 0 0 0 0 0 0 0
0 0 0 0 0 0 0 0 0 0 0 2 3 3 3 3 4 6 6 6 5 4 5 5 6 9 12 9 9 8 8 11 11 10 12 12 11 9 6 9 10 7 5 4 4 4 3 3 2 2 2 2 0 0 0 0 0 0 0 0 0 0 0 0 0 0 0 0 1 0 0 0 0 0 0 0 0 0 0 1 1 1 0 0 1
0 0 0 0 0 0 0 0 0 0 0 0 0 0 1 4 4 5 8 7 8 8 7 6 7 7 8 11 12 11 10 8 9 11 12 14 19 16 12 11 10 7 5 5 5 4 4 4 4 3 3 3 2 2 0 0 0 0 0 0 1 1 0 0 0 0 0 1 1 0 0 0 0 0 0 0 0 0 1 0 0 0 0 0 1
0 0 0 0 0 0 0 0 0 0 0 0 0 0 0 0 3 6 6 7 7 7 8 8 8 8 10 9 10 10 11 10 9 12 12 12 13 14 16 14 10 7 6 5 5 6 5 4 4 4 3 4 3 2 0 0 0 0 0 0 0 0 0 0 1 1 1 1 2 1 1 0 0 0 0 0 0 0 0 0 0 0 0 0 0
0 0 0 0 0 0 0 0 0 0 0 0 0 0 0 2 4 4 5 5 5 7 8 9 8 8 9 10 9 9 8 11 10 9 10 11 11 10 12 12 11 8 8 7 6 6 6 6 9 5 3 3 3 3 0 0 0 0 0 0 0 0 0 0 1 0 0 0 0 0 0 0 1 0 0 0 0 0 0 0 0 0 0 0 0
0 0 0 0 0 0 0 0 0 0 0 0 0 0 0 3 3 4 3 3 3 4 5 6 8 9 11 10 12 11 12 12 11 13 13 12 13 14 13 12 8 9 9 8 9 11 9 8 7 6 6 6 5 5 1 0 0 0 0 0 0 0 0 0 0 0 0 0 0 0 0 0 0 0 0 0 0 0 0 0 0 0 0 0 4
0 0 0 0 0 0 0 0 0 0 0 0 0 0 1 1 1 2 2 1 4 3 4 3 8 9 10 11 14 12 9 10 11 10 13 13 13 12 12 12 12 13 10 11 11 10 8 8 7 7 8 8 7 4 2 0 1 0 0 0 0 0 1 0 0 0 0 2 0 0 0 0 0 0 1 0 0 0 1 2 3 5 9 14 18
Wind_Speed
12 12 12 11 11 11 11 12 11 11 11 12 11 12 12 12 12 12 12 10 10 9 8 8 8 7 7 7 6 7 6 6 6 6 5 4 4 4 4 4 3 3 3 3 2 2 2 4 5 5 5 5 5 5 4 2 2 2 3 3 4 5 5 4 3 2 3 5 4 3 3 3 3 3 1 2 3 3 3 3 4 4 4 4 5
14 14 13 13 11 11 11 12 12 12 11 13 12 13 14 13 13 13 12 11 10 9 9 9 9 9 9 9 9 8 9 8 6 7 6 6 5 6 6 6 5 4 5 4 4 5 4 3 3 3 3 4 5 5 4 4 2 1 2 2 2 2 5 3 2 3 2 4 4 6 4 5 4 5 3 3 4 4 5 6 5 6 5 5 4
17 17 16 14 12 12 12 12 13 12 11 12 11 12 13 13 15 14 13 12 12 11 10 10 11 11 11 11 12 11 11 10 9 9 8 8 7 6 7 7 6 6 5 5 5 6 6 5 4 5 6 5 5 5 6 5 5 5 4 3 3 3 3 3 3 3 3 4 5 4 5 6 6 6 5 4 4 4 4 5 6 6 5 5 3
19 19 19 17 14 15 14 14 13 13 13 14 13 13 14 15 16 15 14 14 13 12 11 11 12 12 12 12 12 12 11 11 10 9 8 8 8 7 7 7 7 6 6 6 6 7 6 5 5 7 8 7 6 6 6 6 6 6 5 4 3 3 3 4 4 3 4 4 4 4 6 6 6 6 6 5 5 5 4 4 4 4 5 4 1
21 21 20 19 17 17 16 16 16 16 16 18 16 15 15 15 17 16 16 16 15 14 13 12 12 12 11 11 11 11 10 9 9 8 8 9 8 8 8 8 8 7 6 6 6 6 5 4 5 6 7 7 5 5 6 6 7 7 7 7 6 5 5 5 4 4 4 4 4 3 4 4 4 4 4 5 6 5 3 2 3 2 0 0 1
23 23 23 22 21 19 19 19 19 19 19 20 19 18 18 17 17 18 17 17 17 15 14 13 12 11 10 10 10 10 9 9 8 7 7 8 9 9 9 9 9 8 8 7 7 7 7 5 5 5 6 5 4 4 5 6 6 6 7 7 6 6 6 5 5 5 4 3 3 3 3 5 5 5 4 4 5 5 4 2 1 3 4 3 3
26 25 25 24 24 23 22 22 23 23 23 22 22 21 20 19 18 18 18 18 17 16 15 14 14 12 10 10 10 10 9 9 10 9 8 8 9 9 9 9 10 10 9 8 8 8 8 7 7 6 6 5 4 3 4 5 6 6 6 6 6 6 6 6 6 5 5 5 4 3 4 4 5 5 4 3 3 1 1 3 3 5 6 5 3
28 26 26 25 25 25 24 24 25 25 24 24 23 22 22 21 21 20 19 18 17 16 16 15 15 13 12 12 12 11 11 11 11 11 11 10 9 9 9 9 9 10 10 10 10 10 10 9 8 8 7 7 6 5 5 5 6 6 6 5 6 6 6 6 6 6 6 6 5 6 5 5 5 4 4 4 4 4 6 5 4 5 6 6 5
30 29 28 28 28 28 28 26 24 23 24 24 23 24 23 23 22 21 20 19 18 18 17 16 16 15 15 14 13 13 12 12 14 14 13 11 10 8 8 8 8 9 9 9 10 11 11 11 10 9 9 9 8 7 6 7 8 7 7 6 5 6 6 6 6 6 6 6 6 6 5 6 7 6 7 7 6 5 4 5 5 6 8 8 8
32 30 29 30 30 31 30 28 25 23 23 24 25 25 25 24 24 23 22 21 21 21 20 19 18 18 17 17 16 15 15 15 16 14 14 14 12 11 10 9 8 8 9 9 9 10 10 11 11 11 11 10 9 8 6 4 5 6 8 8 8 7 7 7 7 7 7 7 7 7 6 7 8 8 7 6 6 6 6 8 7 8 8 9 10
36 33 32 32 31 31 30 28 26 25 26 26 25 25 25 25 25 25 24 23 23 24 22 21 20 20 20 20 19 18 18 18 19 17 16 14 13 12 11 10 9 9 8 9 9 9 10 11 12 12 12 11 10 10 9 9 8 7 5 4 6 8 10 9 9 9 8 8 9 9 9 9 10 10 10 8 8 8 8 9 9 9 10 11 11
38 36 36 35 34 32 31 30 29 29 28 27 26 25 24 24 24 24 24 24 25 24 24 25 25 24 23 23 22 21 21 24 24 20 18 17 17 14 13 12 10 10 10 9 10 10 10 12 13 14 14 13 15 15 15 13 12 11 10 8 7 7 8 9 11 11 11 11 11 11 12 12 12 13 12 11 10 10 10 10 9 9 10 11 12
40 41 40 39 38 36 35 35 35 34 32 30 29 27 25 26 25 26 26 26 26 25 25 25 26 25 26 26 25 25 25 34 31 26 21 19 19 17 15 13 12 11 11 11 11 12 12 12 12 13 14 14 15 14 15 15 15 14 12 12 11 11 10 10 11 12 12 12 11 12 13 13 12 14 16 14 14 11 11 11 11 11 11 11 11
47 46 44 44 41 38 38 39 39 38 38 38 37 34 32 32 33 32 31 29 28 27 26 26 28 27 27 27 28 30 30 38 33 32 28 24 22 21 18 16 15 13 12 12 13 13 14 14 13 13 13 13 15 15 14 14 14 14 15 15 14 14 15 15 14 13 14 14 14 13 14 16 14 14 16 18 16 14 12 10 11 11 11 10 11
47 46 46 44 45 44 43 41 40 39 39 41 41 41 40 38 38 38 37 36 34 31 29 28 29 27 27 27 29 31 37 39 37 35 33 29 27 24 22 21 19 17 16 15 15 15 16 16 15 14 14 14 15 16 15 14 12 12 11 11 12 12 13 14 16 18 19 18 15 14 13 14 14 13 16 17 16 16 14 11 11 12 11 10 10
45 46 47 47 46 44 43 42 42 41 41 43 44 44 42 41 41 41 40 39 36 33 34 33 33 32 31 30 30 32 41 41 39 38 35 35 30 27 27 25 23 22 20 19 19 20 20 19 19 17 16 16 16 20 17 14 11 10 10 10 11 11 12 15 15 14 12 12 12 12 12 12 13 13 14 14 14 14 13 13 14 15 13 11 11
32 33 37 38 40 43 45 45 45 43 43 45 45 45 43 43 43 43 42 38 36 37 39 39 38 36 36 35 35 34 41 41 42 41 39 35 30 31 30 28 27 26 25 25 24 23 23 23 22 21 20 20 22 25 22 19 13 12 12 12 13 13 13 16 20 18 15 13 9 6 5 6 7 7 8 10 13 13 13 12 13 14 12 9 9
23 nan nan 26 27 31 37 41 42 42 44 48 49 48 45 42 43 44 43 40 41 41 41 41 42 42 42 42 41 42 42 44 46 45 42 39 33 33 33 32 30 29 28 28 27 27 27 25 24 23 23 25 36 34 30 23 17 15 15 15 14 14 16 19 21 21 24 19 15 12 10 9 9 8 8 10 12 20 18 14 12 13 10 9 8
22 21 nan 20 nan 23 25 29 31 32 34 35 38 42 42 42 41 39 35 32 33 38 41 42 42 42 43 44 46 44 44 45 47 46 45 44 39 36 36 33 31 30 31 30 30 30 30 30 31 33 33 35 37 35 31 26 21 19 19 18 17 17 20 23 22 21 22 21 20 19 18 16 16 17 16 15 16 23 22 17 14 14 11 9 9
nan nan nan nan nan nan 23 23 nan 25 26 27 28 29 29 32 34 31 27 23 25 30 35 36 38 40 42 44 45 45 46 44 45 46 46 47 44 40 41 39 37 35 32 31 29 29 30 30 38 42 40 38 37 35 34 31 28 25 24 22 21 20 25 26 25 24 22 21 20 19 16 16 16 16 16 18 21 25 25 22 20 18 16 13 12
nan 26 nan 28 nan nan nan nan 26 26 25 26 26 26 25 27 28 27 27 26 27 28 29 29 31 32 34 35 38 40 41 42 44 47 47 48 49 44 44 44 41 39 37 35 33 33 34 34 35 42 41 38 35 33 31 29 28 28 27 26 25 27 28 23 23 24 24 23 22 21 21 21 21 20 19 19 20 22 23 24 22 22 21 18 15
nan nan nan nan nan nan 35 33 nan nan nan nan nan nan nan nan nan nan 28 nan 31 32 32 32 32 32 31 30 30 nan nan 40 36 42 44 46 47 47 42 42 39 38 40 40 38 39 38 37 35 40 40 36 34 33 31 30 29 29 28 26 24 24 25 25 25 26 26 26 25 24 24 24 24 23 22 21 21 22 22 21 22 23 23 21 20
nan nan nan nan nan nan nan nan nan nan nan nan nan nan nan nan nan nan nan nan 32 33 34 nan nan 35 34 nan nan nan nan nan nan nan 40 41 42 41 41 39 37 38 40 40 39 39 40 38 37 38 36 35 34 33 32 31 31 31 29 30 28 29 28 28 28 28 28 26 26 26 26 27 26 26 25 25 25 25 25 25 24 24 23 22 22
nan nan nan nan nan nan nan nan nan nan nan nan nan nan nan nan nan nan nan nan nan nan nan nan nan nan nan nan nan nan nan nan nan nan nan nan nan 37 37 38 38 37 39 40 39 40 40 40 36 34 35 36 35 35 34 34 34 30 29 28 31 32 33 31 31 30 29 28 27 26 27 28 29 28 28 28 27 28 27 26 25 25 25 23 21
nan nan nan nan nan nan nan nan nan nan nan nan nan nan nan nan nan nan nan nan nan nan nan nan nan nan nan nan nan nan nan nan nan nan nan nan nan nan nan nan 36 35 38 38 38 39 36 33 34 37 37 37 37 35 36 37 35 34 32 31 33 37 36 35 34 34 32 31 30 29 29 29 29 29 28 28 27 27 27 27 27 27 26 25 23
nan nan nan nan nan nan nan nan nan nan nan nan nan nan nan nan nan nan nan nan nan nan nan nan nan nan nan nan nan nan nan nan nan nan nan nan nan nan nan nan nan nan nan nan nan nan nan nan 36 38 41 41 39 41 41 39 35 32 31 34 38 40 40 39 38 37 36 34 33 33 32 32 31 32 33 32 30 30 31 30 30 30 31 30 28
nan nan nan nan nan nan nan nan nan nan nan nan nan nan nan nan nan nan nan nan nan nan nan nan nan nan nan nan nan nan nan nan nan nan nan nan nan nan nan nan nan nan nan nan nan nan nan nan nan nan 38 nan nan nan nan 39 40 nan nan nan nan nan 43 42 39 38 38 38 37 36 36 36 35 34 34 34 33 34 36 35 34 33 34 34 33
nan nan nan nan nan nan nan nan nan nan nan nan nan nan nan nan nan nan nan nan nan nan nan nan nan nan nan nan nan nan nan nan nan nan nan nan nan nan nan nan nan nan nan nan nan nan nan nan nan nan nan nan nan nan nan nan nan nan nan nan nan nan nan nan nan nan nan nan nan nan 40 38 37 36 36 35 35 37 39 38 37 36 37 36 33
nan nan nan nan nan nan nan nan nan nan nan nan nan nan nan nan nan nan nan nan nan nan nan nan nan nan nan nan nan nan nan nan nan nan nan nan nan nan nan nan nan nan nan nan nan nan nan nan nan nan nan nan nan nan nan nan nan nan nan nan nan nan nan nan nan nan nan nan nan nan nan nan 43 42 40 38 38 38 40 40 39 38 39 38 34
nan nan nan nan nan nan nan nan nan nan nan nan nan nan nan nan nan nan nan nan nan nan nan nan nan nan nan nan nan nan nan nan nan nan nan nan nan nan nan nan nan nan nan nan nan nan nan nan nan nan nan nan nan nan nan nan nan nan nan nan nan nan nan nan nan nan nan nan nan nan nan 44 44 44 44 43 43 42 43 42 40 40 39 38 36
nan nan nan nan nan nan nan nan nan nan nan nan nan nan nan nan nan nan nan nan nan nan nan nan nan nan nan nan nan nan nan nan nan nan nan nan nan nan nan nan nan nan nan nan nan nan nan nan nan nan nan nan nan nan nan nan nan nan nan nan nan nan nan nan nan nan nan nan nan nan nan nan nan nan nan 45 nan 44 44 44 43 41 40 39 38
nan nan nan nan nan nan nan nan nan nan nan nan nan nan nan nan nan nan nan nan nan nan nan nan nan nan nan nan nan nan nan nan nan nan nan nan nan nan nan nan nan nan nan nan nan nan nan nan nan nan nan nan nan nan nan nan nan nan nan nan nan nan nan nan nan nan nan nan nan nan nan nan nan nan nan nan nan nan nan nan nan 44 42 41 40
nan nan nan nan nan nan nan nan nan nan nan nan nan nan nan nan nan nan nan nan nan nan nan nan nan nan nan nan nan nan nan nan nan nan nan nan nan nan nan nan nan nan nan nan nan nan nan nan nan nan nan nan nan nan nan nan nan nan nan nan nan nan nan nan nan nan nan nan nan nan nan nan nan nan nan nan nan nan nan nan nan nan nan nan 44
nan nan nan nan nan nan nan nan nan nan nan nan nan nan nan nan nan nan nan nan nan nan nan nan nan nan nan nan nan nan nan nan nan nan nan nan nan nan nan nan nan nan nan nan nan nan nan nan nan nan nan nan nan nan nan nan nan nan nan nan nan nan nan nan nan nan nan nan nan nan nan nan nan nan nan nan nan nan nan nan nan nan nan nan nan
nan nan nan nan nan nan nan nan nan nan nan nan nan nan nan nan nan nan nan nan nan nan nan nan nan nan nan nan nan nan nan nan nan nan nan nan nan nan nan nan nan nan nan nan nan nan nan nan nan nan nan nan nan nan nan nan nan nan nan nan nan nan nan nan nan nan nan nan nan nan nan nan nan nan nan nan nan nan nan nan nan nan nan nan nan
nan nan nan nan nan nan nan nan nan nan nan nan nan nan nan nan nan nan nan nan nan nan nan nan nan nan nan nan nan nan nan nan nan nan nan nan nan nan nan nan nan nan nan nan nan nan nan nan nan nan nan nan nan nan nan nan nan nan nan nan nan nan nan nan nan nan nan nan nan nan nan nan nan nan nan nan nan nan nan nan nan nan nan nan nan
nan nan nan nan nan nan nan nan nan nan nan nan nan nan nan nan nan nan nan nan nan nan nan nan nan nan nan nan nan nan nan nan nan nan nan nan nan nan nan nan nan nan nan nan nan nan nan nan nan nan nan nan nan nan nan nan nan nan nan nan nan nan nan nan nan nan nan nan nan nan nan nan nan nan nan nan nan nan nan nan nan nan nan nan nan
nan nan nan nan nan nan nan nan nan nan nan nan nan nan nan nan nan nan nan nan nan nan nan nan nan nan nan nan nan nan nan nan nan nan nan nan nan nan nan nan nan nan nan nan nan nan nan nan nan nan nan nan nan nan nan nan nan nan nan nan nan nan nan nan nan nan nan nan nan nan nan nan nan nan nan nan nan nan nan nan nan nan nan nan nan
nan nan nan nan nan nan nan nan nan nan nan nan nan nan nan nan nan nan nan nan nan nan nan nan nan nan nan nan nan nan nan nan nan nan nan nan nan nan nan nan nan nan nan nan nan nan nan nan nan nan nan nan nan nan nan nan nan nan nan nan nan nan nan nan nan nan nan nan nan nan nan nan nan nan nan nan nan nan nan nan nan nan nan nan nan
nan nan nan nan nan nan nan nan nan nan nan nan nan nan nan nan nan nan nan nan nan nan nan nan nan nan nan nan nan nan nan nan nan nan nan nan nan nan nan nan nan nan nan nan nan nan nan nan nan nan nan nan nan nan nan nan nan nan nan nan nan nan nan nan nan nan nan nan nan nan nan nan nan nan nan nan nan nan nan nan nan nan nan nan nan
nan nan nan nan nan nan nan nan nan nan nan nan nan nan nan nan nan nan nan nan nan nan nan nan nan nan nan nan nan nan nan nan nan nan nan nan nan nan nan nan nan nan nan nan nan nan nan nan nan nan nan nan nan nan nan nan nan nan nan nan nan nan nan nan nan nan nan nan nan nan nan nan nan nan nan nan nan nan nan nan nan nan nan nan nan
nan nan nan nan nan nan nan nan nan nan nan nan nan nan nan nan nan nan nan nan nan nan nan nan nan nan nan nan nan nan nan nan nan nan nan nan nan nan nan nan nan nan nan nan nan nan nan nan nan nan nan nan nan nan nan nan nan nan nan nan nan nan nan nan nan nan nan nan nan nan nan nan nan nan nan nan nan nan nan nan nan nan nan nan nan
nan nan nan nan nan nan nan nan nan nan nan nan nan nan nan nan nan nan nan nan nan nan nan nan nan nan nan nan nan nan nan nan nan nan nan nan nan nan nan nan nan nan nan nan nan nan nan nan nan nan nan nan nan nan nan nan nan nan nan nan nan nan nan nan nan nan nan nan nan nan nan nan nan nan nan nan nan nan nan nan nan nan nan nan nan
nan nan nan nan nan nan nan nan nan nan nan nan nan nan nan nan nan nan nan nan nan nan nan nan nan nan nan nan nan nan nan nan nan nan nan nan nan nan nan nan nan nan nan nan nan nan nan nan nan nan nan nan nan nan nan nan nan nan nan nan nan nan nan nan nan nan nan nan nan nan nan nan nan nan nan nan nan nan nan nan nan nan nan nan nan
nan nan nan nan nan nan nan nan nan nan nan nan nan nan nan nan nan nan nan nan nan nan nan nan nan nan nan nan nan nan nan nan nan nan nan nan nan nan nan nan nan nan nan nan nan nan nan nan nan nan nan nan nan nan nan nan nan nan nan nan nan nan nan nan nan nan nan nan nan nan nan nan nan nan nan nan nan nan nan nan nan nan nan nan nan
nan nan nan nan nan nan nan nan nan nan nan nan nan nan nan nan nan nan nan nan nan nan nan nan nan nan nan nan nan nan nan nan nan nan nan nan nan nan nan nan nan nan nan nan nan nan nan nan nan nan nan nan nan nan nan nan nan nan nan nan nan nan nan nan nan nan nan nan nan nan nan nan nan nan nan nan nan nan nan nan nan nan nan nan nan
nan nan nan nan nan nan nan nan nan nan nan nan nan nan nan nan nan nan nan nan nan nan nan nan nan nan nan nan nan nan nan nan nan nan nan nan nan nan nan nan nan nan nan nan nan nan nan nan nan nan nan nan nan nan nan nan nan nan nan nan nan nan nan nan nan nan nan nan nan nan nan nan nan nan nan nan nan nan nan nan nan nan nan nan nan
nan nan nan nan nan nan nan nan nan nan nan nan nan nan nan nan nan nan nan nan nan nan nan nan nan nan nan nan nan nan nan nan nan nan nan nan nan nan nan nan nan nan nan nan nan nan nan nan nan nan nan nan nan nan nan nan nan nan nan nan nan nan nan nan nan nan nan nan nan nan nan nan nan nan nan nan nan nan nan nan nan nan nan nan nan
nan nan nan nan nan nan nan nan nan nan nan nan nan nan nan nan nan nan nan nan nan nan nan nan nan nan nan nan nan nan nan nan nan nan nan nan nan nan nan nan nan nan nan nan nan nan nan nan nan nan nan nan nan nan nan nan nan nan nan nan nan nan nan nan nan nan nan nan nan nan nan nan nan nan nan nan nan nan nan nan nan nan nan nan nan
nan nan nan nan nan nan nan nan nan nan nan nan nan nan nan nan nan nan nan nan nan nan nan nan nan nan nan nan nan nan nan nan nan nan nan nan nan nan nan nan nan nan nan nan nan nan nan nan nan nan nan nan nan nan nan nan nan nan nan nan nan nan nan nan nan nan nan nan nan nan nan nan nan nan nan nan nan nan nan nan nan nan nan nan nan
nan nan nan nan nan nan nan nan nan nan nan nan nan nan nan nan nan nan nan nan nan nan nan nan nan nan nan nan nan nan nan nan nan nan nan nan nan nan nan nan nan nan nan nan nan nan nan nan nan nan nan nan nan nan nan nan nan nan nan nan nan nan nan nan nan nan nan nan nan nan nan nan nan nan nan nan nan nan nan nan nan nan nan nan nan
Wind_Direction
240 238 234 225 224 222 220 221 223 220 219 220 212 212 213 213 217 217 229 229 235 240 241 244 249 249 242 243 241 241 239 235 240 242 243 240 239 234 243 254 241 234 247 237 241 236 199 168 164 168 184 177 184 183 184 193 234 260 269 274 273 285 293 293 289 273 283 294 294 272 233 239 256 260 190 187 186 204 184 181 159 152 149 152 149
237 241 239 234 232 229 227 227 227 227 230 230 221 219 216 215 216 223 226 231 235 238 240 241 248 254 255 255 253 252 252 252 249 253 257 258 256 261 268 272 264 248 245 247 255 258 245 216 190 184 206 201 190 185 193 196 207 219 283 281 253 257 289 268 259 269 247 272 274 268 257 272 251 259 222 202 193 192 179 171 157 159 164 158 161
238 240 240 240 241 237 236 234 230 230 230 230 227 226 227 221 222 221 221 229 237 234 238 238 244 249 250 253 256 256 260 258 257 257 256 259 257 255 258 267 266 258 257 256 252 255 255 242 224 230 244 232 217 206 206 206 207 202 191 208 207 197 240 275 250 235 237 240 243 228 244 247 236 222 210 208 210 213 194 173 165 167 162 157 160
238 240 239 236 237 237 235 232 232 229 227 226 225 225 227 230 230 224 221 223 232 237 237 238 242 245 244 248 251 252 258 259 261 264 267 265 261 261 261 262 261 262 261 255 252 258 253 238 224 227 235 234 228 219 221 226 229 231 222 220 214 195 207 245 272 258 248 237 242 227 222 222 228 225 219 219 209 212 202 183 164 159 159 166 155
239 240 242 240 235 232 233 233 231 227 223 222 222 223 225 227 232 230 224 222 223 230 239 242 244 244 238 240 242 246 248 253 259 260 265 268 270 265 262 262 259 258 255 256 258 258 257 250 232 233 241 241 234 228 228 227 234 237 234 236 233 228 231 232 240 256 244 241 234 240 231 234 248 239 224 213 214 204 198 181 184 182 12 252 308
236 238 240 241 237 232 227 227 229 228 226 223 224 224 224 226 230 234 230 227 225 223 227 235 241 241 235 231 234 237 240 246 253 255 258 265 269 268 267 265 260 255 249 249 256 263 260 257 254 252 253 254 238 227 224 219 233 238 238 237 235 238 239 232 243 250 243 227 221 196 206 191 216 227 207 220 209 193 179 206 275 327 332 301 296
234 236 238 239 238 236 231 228 228 230 230 227 225 226 227 228 230 232 235 233 231 225 225 228 235 232 227 223 222 229 238 244 251 253 250 254 260 266 264 266 265 258 252 246 244 250 254 256 260 264 263 263 250 230 226 221 231 226 232 229 224 229 226 228 232 228 222 208 212 215 195 204 216 199 215 226 215 281 254 241 249 285 312 307 299
232 234 236 237 238 238 235 233 232 233 233 236 235 233 230 229 231 233 236 239 237 235 229 230 234 236 232 226 224 225 230 236 247 250 248 244 247 254 260 259 256 255 251 250 246 243 244 245 245 252 261 266 265 248 236 228 231 220 223 220 218 217 209 204 202 205 206 209 211 206 211 209 217 217 222 254 237 268 295 279 264 272 289 304 305
232 232 233 234 236 238 238 237 236 236 236 237 239 240 238 237 236 234 236 237 239 241 240 237 236 237 240 241 235 233 232 238 246 252 254 254 249 243 249 254 255 252 252 247 247 249 247 246 247 247 256 269 270 258 232 231 230 221 218 217 217 220 211 202 200 205 209 220 224 233 229 238 242 239 237 253 258 247 270 299 299 296 294 293 297
233 233 234 234 235 237 239 238 238 238 238 238 238 240 242 242 241 241 239 238 240 242 242 242 241 242 245 249 250 247 247 248 258 269 266 259 258 251 250 252 252 253 255 252 248 249 248 247 245 254 261 267 269 273 279 270 263 238 219 213 209 212 217 215 218 225 228 231 238 239 236 243 245 252 255 259 269 292 298 303 295 274 267 273 289
231 228 230 231 232 234 236 238 238 239 239 239 240 240 242 242 245 245 243 241 240 243 244 246 245 245 247 249 253 254 253 254 263 273 280 280 267 261 258 256 258 263 266 265 257 250 246 248 245 254 267 267 265 276 272 271 271 272 260 232 217 219 218 221 230 236 241 244 250 259 259 257 261 263 270 266 275 283 287 291 289 278 271 258 259
228 228 233 235 234 234 234 236 238 238 238 240 241 243 243 245 247 249 248 248 245 242 244 246 246 247 249 250 252 253 252 253 258 264 273 280 282 274 268 262 261 263 266 267 266 260 253 249 249 248 251 252 247 251 263 273 274 270 270 266 261 258 259 252 245 245 247 246 251 258 258 262 264 269 270 269 272 274 280 282 285 278 264 262 267
227 227 229 232 234 234 234 235 236 236 238 242 244 245 245 246 247 248 249 248 248 248 247 247 249 249 250 252 252 252 251 254 251 253 259 269 278 279 271 271 266 263 260 264 265 266 265 261 254 254 248 257 263 257 254 254 270 283 278 272 270 276 280 287 286 276 257 255 254 255 265 264 266 273 276 277 277 276 271 271 269 265 263 264 273
224 224 226 228 229 230 232 234 234 234 236 238 239 239 242 242 241 243 246 249 248 247 247 247 246 246 246 249 250 249 250 250 248 251 249 256 266 273 269 269 270 267 264 264 263 264 267 267 263 260 258 259 262 263 261 261 258 264 272 274 272 283 298 303 299 298 289 272 264 261 265 273 275 274 276 280 282 279 274 269 263 262 262 269 266
229 227 228 227 229 230 231 231 231 230 233 236 236 237 239 240 242 243 243 244 245 244 243 245 244 243 244 246 249 251 249 241 245 249 250 248 254 267 262 263 263 265 267 268 268 267 268 269 267 264 261 262 263 261 258 260 265 272 277 276 278 275 274 276 278 277 280 284 284 284 278 277 278 278 278 281 286 288 287 282 276 275 277 279 285
231 231 230 229 230 230 232 233 234 234 235 235 236 237 238 240 242 243 244 243 245 248 249 246 245 244 243 243 247 251 249 242 243 244 247 250 256 257 259 260 259 260 261 262 262 263 265 267 267 267 266 266 265 271 272 265 263 267 270 270 268 270 273 278 285 283 277 271 276 276 275 271 266 268 270 273 276 282 284 288 289 290 291 289 285
220 224 229 226 227 231 233 234 236 234 234 236 235 234 235 237 238 241 244 244 245 246 246 245 244 244 245 244 247 249 250 243 241 242 243 243 251 256 254 254 254 254 255 256 258 260 261 262 264 263 263 265 264 272 280 279 267 263 261 258 257 257 261 265 291 308 312 315 317 304 282 273 277 283 289 296 297 284 279 285 295 298 303 300 285
207 nan nan 214 217 224 228 231 233 233 233 235 235 236 238 240 242 242 240 240 240 242 245 246 243 244 246 247 247 252 252 247 244 243 241 240 246 251 253 253 252 251 251 252 253 256 258 256 256 259 259 259 251 254 262 273 268 265 263 262 262 266 266 268 270 283 307 313 317 322 321 315 310 309 302 300 305 297 299 304 298 291 304 301 289
213 214 nan 211 nan 214 216 220 225 229 231 230 230 233 234 234 238 238 236 235 241 242 244 245 245 244 245 247 248 251 253 250 246 245 244 242 244 249 250 250 249 249 248 249 251 252 255 258 257 254 253 252 252 256 260 265 265 263 262 260 262 263 265 264 268 267 268 270 280 285 289 301 301 297 299 317 317 307 308 310 298 299 302 299 289
nan nan nan nan nan nan 223 223 nan 226 230 231 230 230 228 230 234 238 238 238 241 240 240 241 243 243 243 245 247 248 251 250 244 242 241 241 241 249 252 250 248 246 246 247 248 250 251 254 262 258 255 251 253 256 260 260 261 260 260 263 260 259 257 259 262 263 265 269 270 272 273 271 275 281 284 288 295 303 307 308 308 306 305 301 296
nan 235 nan 235 nan nan nan nan 238 240 241 244 246 247 244 244 248 253 254 251 249 245 243 243 243 242 241 241 243 244 247 250 246 245 245 245 242 244 255 252 250 249 249 249 248 248 248 249 253 257 250 246 246 248 253 259 262 263 264 264 262 253 251 259 262 267 270 271 273 275 276 277 278 279 279 281 282 284 292 302 304 303 303 300 296
nan nan nan nan nan nan 241 242 nan nan nan nan nan nan nan nan nan nan 256 nan 254 253 252 252 251 249 248 246 245 nan nan 248 249 249 246 245 245 243 251 252 249 251 251 252 250 250 249 249 249 249 243 244 246 249 252 259 260 264 264 270 265 261 263 262 262 264 267 269 270 270 272 274 274 274 274 274 276 280 283 285 289 293 297 297 296
nan nan nan nan nan nan nan nan nan nan nan nan nan nan nan nan nan nan nan nan 255 256 255 nan nan 254 253 nan nan nan nan nan nan nan 248 246 244 245 246 249 243 251 253 252 250 249 249 247 246 239 239 243 246 248 253 258 266 269 261 258 260 261 266 269 267 266 264 262 263 267 269 270 271 272 274 275 277 279 281 282 281 284 288 291 295
nan nan nan nan nan nan nan nan nan nan nan nan nan nan nan nan nan nan nan nan nan nan nan nan nan nan nan nan nan nan nan nan nan nan nan nan nan 247 248 249 251 255 256 256 254 252 251 248 246 240 242 242 245 248 250 257 263 262 262 266 270 275 272 268 268 266 262 260 261 261 263 265 267 268 270 271 272 273 275 276 279 282 284 284 287
nan nan nan nan nan nan nan nan nan nan nan nan nan nan nan nan nan nan nan nan nan nan nan nan nan nan nan nan nan nan nan nan nan nan nan nan nan nan nan nan 254 254 259 258 257 257 255 248 244 243 243 245 246 251 255 256 256 258 262 264 269 268 268 265 264 263 263 262 262 261 261 262 264 264 263 265 265 268 272 274 275 276 278 279 281
nan nan nan nan nan nan nan nan nan nan nan nan nan nan nan nan nan nan nan nan nan nan nan nan nan nan nan nan nan nan nan nan nan nan nan nan nan nan nan nan nan nan nan nan nan nan nan nan 247 246 248 251 253 255 255 255 254 256 262 268 266 263 263 263 263 264 262 262 261 262 261 261 262 262 263 266 268 269 269 270 271 273 275 276 278
nan nan nan nan nan nan nan nan nan nan nan nan nan nan nan nan nan nan nan nan nan nan nan nan nan nan nan nan nan nan nan nan nan nan nan nan nan nan nan nan nan nan nan nan nan nan nan nan nan nan 255 nan nan nan nan 254 255 nan nan nan nan nan 257 259 261 262 263 263 262 260 259 259 259 262 266 268 269 271 271 271 272 271 272 274 276
nan nan nan nan nan nan nan nan nan nan nan nan nan nan nan nan nan nan nan nan nan nan nan nan nan nan nan nan nan nan nan nan nan nan nan nan nan nan nan nan nan nan nan nan nan nan nan nan nan nan nan nan nan nan nan nan nan nan nan nan nan nan nan nan nan nan nan nan nan nan 258 260 260 259 259 262 264 266 268 270 270 270 271 271 274
nan nan nan nan nan nan nan nan nan nan nan nan nan nan nan nan nan nan nan nan nan nan nan nan nan nan nan nan nan nan nan nan nan nan nan nan nan nan nan nan nan nan nan nan nan nan nan nan nan nan nan nan nan nan nan nan nan nan nan nan nan nan nan nan nan nan nan nan nan nan nan nan 254 255 256 258 261 263 265 267 269 269 270 271 271
nan nan nan nan nan nan nan nan nan nan nan nan nan nan nan nan nan nan nan nan nan nan nan nan nan nan nan nan nan nan nan nan nan nan nan nan nan nan nan nan nan nan nan nan nan nan nan nan nan nan nan nan nan nan nan nan nan nan nan nan nan nan nan nan nan nan nan nan nan nan nan 258 258 257 256 255 255 257 259 263 264 266 268 268 268
nan nan nan nan nan nan nan nan nan nan nan nan nan nan nan nan nan nan nan nan nan nan nan nan nan nan nan nan nan nan nan nan nan nan nan nan nan nan nan nan nan nan nan nan nan nan nan nan nan nan nan nan nan nan nan nan nan nan nan nan nan nan nan nan nan nan nan nan nan nan nan nan nan nan nan 258 nan 257 259 261 263 264 265 264 265
nan nan nan nan nan nan nan nan nan nan nan nan nan nan nan nan nan nan nan nan nan nan nan nan nan nan nan nan nan nan nan nan nan nan nan nan nan nan nan nan nan nan nan nan nan nan nan nan nan nan nan nan nan nan nan nan nan nan nan nan nan nan nan nan nan nan nan nan nan nan nan nan nan nan nan nan nan nan nan nan nan 256 257 259 261
nan nan nan nan nan nan nan nan nan nan nan nan nan nan nan nan nan nan nan nan nan nan nan nan nan nan nan nan nan nan nan nan nan nan nan nan nan nan nan nan nan nan nan nan nan nan nan nan nan nan nan nan nan nan nan nan nan nan nan nan nan nan nan nan nan nan nan nan nan nan nan nan nan nan nan nan nan nan nan nan nan nan nan nan 254
nan nan nan nan nan nan nan nan nan nan nan nan nan nan nan nan nan nan nan nan nan nan nan nan nan nan nan nan nan nan nan nan nan nan nan nan nan nan nan nan nan nan nan nan nan nan nan nan nan nan nan nan nan nan nan nan nan nan nan nan nan nan nan nan nan nan nan nan nan nan nan nan nan nan nan nan nan nan nan nan nan nan nan nan nan
nan nan nan nan nan nan nan nan nan nan nan nan nan nan nan nan nan nan nan nan nan nan nan nan nan nan nan nan nan nan nan nan nan nan nan nan nan nan nan nan nan nan nan nan nan nan nan nan nan nan nan nan nan nan nan nan nan nan nan nan nan nan nan nan nan nan nan nan nan nan nan nan nan nan nan nan nan nan nan nan nan nan nan nan nan
nan nan nan nan nan nan nan nan nan nan nan nan nan nan nan nan nan nan nan nan nan nan nan nan nan nan nan nan nan nan nan nan nan nan nan nan nan nan nan nan nan nan nan nan nan nan nan nan nan nan nan nan nan nan nan nan nan nan nan nan nan nan nan nan nan nan nan nan nan nan nan nan nan nan nan nan nan nan nan nan nan nan nan nan nan
nan nan nan nan nan nan nan nan nan nan nan nan nan nan nan nan nan nan nan nan nan nan nan nan nan nan nan nan nan nan nan nan nan nan nan nan nan nan nan nan nan nan nan nan nan nan nan nan nan nan nan nan nan nan nan nan nan nan nan nan nan nan nan nan nan nan nan nan nan nan nan nan nan nan nan nan nan nan nan nan nan nan nan nan nan
nan nan nan nan nan nan nan nan nan nan nan nan nan nan nan nan nan nan nan nan nan nan nan nan nan nan nan nan nan nan nan nan nan nan nan nan nan nan nan nan nan nan nan nan nan nan nan nan nan nan nan nan nan nan nan nan nan nan nan nan nan nan nan nan nan nan nan nan nan nan nan nan nan nan nan nan nan nan nan nan nan nan nan nan nan
nan nan nan nan nan nan nan nan nan nan nan nan nan nan nan nan nan nan nan nan nan nan nan nan nan nan nan nan nan nan nan nan nan nan nan nan nan nan nan nan nan nan nan nan nan nan nan nan nan nan nan nan nan nan nan nan nan nan nan nan nan nan nan nan nan nan nan nan nan nan nan nan nan nan nan nan nan nan nan nan nan nan nan nan nan
nan nan nan nan nan nan nan nan nan nan nan nan nan nan nan nan nan nan nan nan nan nan nan nan nan nan nan nan nan nan nan nan nan nan nan nan nan nan nan nan nan nan nan nan nan nan nan nan nan nan nan nan nan nan nan nan nan nan nan nan nan nan nan nan nan nan nan nan nan nan nan nan nan nan nan nan nan nan nan nan nan nan nan nan nan
nan nan nan nan nan nan nan nan nan nan nan nan nan nan nan nan nan nan nan nan nan nan nan nan nan nan nan nan nan nan nan nan nan nan nan nan nan nan nan nan nan nan nan nan nan nan nan nan nan nan nan nan nan nan nan nan nan nan nan nan nan nan nan nan nan nan nan nan nan nan nan nan nan nan nan nan nan nan nan nan nan nan nan nan nan
nan nan nan nan nan nan nan nan nan nan nan nan nan nan nan nan nan nan nan nan nan nan nan nan nan nan nan nan nan nan nan nan nan nan nan nan nan nan nan nan nan nan nan nan nan nan nan nan nan nan nan nan nan nan nan nan nan nan nan nan nan nan nan nan nan nan nan nan nan nan nan nan nan nan nan nan nan nan nan nan nan nan nan nan nan
nan nan nan nan nan nan nan nan nan nan nan nan nan nan nan nan nan nan nan nan nan nan nan nan nan nan nan nan nan nan nan nan nan nan nan nan nan nan nan nan nan nan nan nan nan nan nan nan nan nan nan nan nan nan nan nan nan nan nan nan nan nan nan nan nan nan nan nan nan nan nan nan nan nan nan nan nan nan nan nan nan nan nan nan nan
nan nan nan nan nan nan nan nan nan nan nan nan nan nan nan nan nan nan nan nan nan nan nan nan nan nan nan nan nan nan nan nan nan nan nan nan nan nan nan nan nan nan nan nan nan nan nan nan nan nan nan nan nan nan nan nan nan nan nan nan nan nan nan nan nan nan nan nan nan nan nan nan nan nan nan nan nan nan nan nan nan nan nan nan nan
nan nan nan nan nan nan nan nan nan nan nan nan nan nan nan nan nan nan nan nan nan nan nan nan nan nan nan nan nan nan nan nan nan nan nan nan nan nan nan nan nan nan nan nan nan nan nan nan nan nan nan nan nan nan nan nan nan nan nan nan nan nan nan nan nan nan nan nan nan nan nan nan nan nan nan nan nan nan nan nan nan nan nan nan nan
nan nan nan nan nan nan nan nan nan nan nan nan nan nan nan nan nan nan nan nan nan nan nan nan nan nan nan nan nan nan nan nan nan nan nan nan nan nan nan nan nan nan nan nan nan nan nan nan nan nan nan nan nan nan nan nan nan nan nan nan nan nan nan nan nan nan nan nan nan nan nan nan nan nan nan nan nan nan nan nan nan nan nan nan nan
nan nan nan nan nan nan nan nan nan nan nan nan nan nan nan nan nan nan nan nan nan nan nan nan nan nan nan nan nan nan nan nan nan nan nan nan nan nan nan nan nan nan nan nan nan nan nan nan nan nan nan nan nan nan nan nan nan nan nan nan nan nan nan nan nan nan nan nan nan nan nan nan nan nan nan nan nan nan nan nan nan nan nan nan nan
nan nan nan nan nan nan nan nan nan nan nan nan nan nan nan nan nan nan nan nan nan nan nan nan nan nan nan nan nan nan nan nan nan nan nan nan nan nan nan nan nan nan nan nan nan nan nan nan nan nan nan nan nan nan nan nan nan nan nan nan nan nan nan nan nan nan nan nan nan nan nan nan nan nan nan nan nan nan nan nan nan nan nan nan nan
nan nan nan nan nan nan nan nan nan nan nan nan nan nan nan nan nan nan nan nan nan nan nan nan nan nan nan nan nan nan nan nan nan nan nan nan nan nan nan nan nan nan nan nan nan nan nan nan nan nan nan nan nan nan nan nan nan nan nan nan nan nan nan nan nan nan nan nan nan nan nan nan nan nan nan nan nan nan nan nan nan nan nan nan nan
nan nan nan nan nan nan nan nan nan nan nan nan nan nan nan nan nan nan nan nan nan nan nan nan nan nan nan nan nan nan nan nan nan nan nan nan nan nan nan nan nan nan nan nan nan nan nan nan nan nan nan nan nan nan nan nan nan nan nan nan nan nan nan nan nan nan nan nan nan nan nan nan nan nan nan nan nan nan nan nan nan nan nan nan nan
nan nan nan nan nan nan nan nan nan nan nan nan nan nan nan nan nan nan nan nan nan nan nan nan nan nan nan nan nan nan nan nan nan nan nan nan nan nan nan nan nan nan nan nan nan nan nan nan nan nan nan nan nan nan nan nan nan nan nan nan nan nan nan nan nan nan nan nan nan nan nan nan nan nan nan nan nan nan nan nan nan nan nan nan nan